Voltar ao catálogo

COSMOS 2344

AtivoMilitarUNKNOWN
NORAD 24827·PAYLOAD·🇷🇺 Russia

Lançado Jun 6, 1997 de Baikonur Cosmodrome

Loading…

Próximas Passagens (próximas 24 horas)

TLE

AtualizadoSource: Space-Track

Época: Sep 14, 2026, 09:33 UTC

1 24827U 97028A   26257.39816429 -.00000231  00000-0 -19661-2 0  9996
2 24827  63.2981  56.1225 1093630  70.9333 319.1711 11.07945862184449

Acompanhe COSMOS 2344 em tempo real com AllMySat

Download on the App Store